Weather History for Hartsville, SC

Change the Weather History Date:

Thursday, August 28, 2014

  Actual Average (KFLO) Record (KFLO)
Temperature  
Mean Temperature 78 °F 79 °F  
Max Temperature 95 °F 88 °F 101 °F (1948)
Min Temperature 60 °F 69 °F 58 °F (1969)
Degree Days  
Heating Degree Days 0 0  
Month to date heating degree days 0  
Since 1 June heating degree days 1  
Since 1 July heating degree days 0  
Cooling Degree Days 12 14  
Month to date cooling degree days 424  
Year to date cooling degree days 1630  
Since 1 June cooling degree days 1323  
Growing Degree Days 28 (Base 50)    
Moisture  
Dew Point 35 °F    
Average Humidity 32    
Maximum Humidity 88    
Minimum Humidity 4    
Precipitation  
Precipitation 0.00 in 0.16 in 3.45 in (1949)
Month to date precipitation 4.78  
Year to date precipitation 30.02  
Sea Level Pressure  
Sea Level Pressure 30.01 in    
Wind  
Wind Speed 2 mph (SW)    
Max Wind Speed 9 mph    
Max Gust Speed -    
Visibility 10 miles    
Events      
T = Trace of Precipitation, MM = Missing Value Source: NWS Daily Summary

Daily Weather History Graph

Daily Weather History Graph

Search for Another Location

Airport:

Trip Planner

Search our weather history database for the weather conditions in past years. The results will help you decide how hot, cold, wet, or windy it might be!

Date:

Astronomy

Aug. 28, 2014 Rise Set
Actual Time 6:50 AM EDT 7:51 PM EDT
Civil Twilight 6:25 AM EDT 8:17 PM EDT
Nautical Twilight 5:54 AM EDT 8:48 PM EDT
Astronomical Twilight 5:22 AM EDT 9:19 PM EDT
Moon 9:32 AM EDT (8/28) 9:25 PM EDT (8/28)
Length of Visible Light 13h 52m
Length of Day
13h 01m
Waxing Crescent, 8% of the Moon is Illuminated
Aug 28
Waxing Crescent
Sep 2
First Quarter
Sep 8
Full
Sep 15
Last Quarter
Sep 24
New

Hourly Weather History & Observations

Time (EDT) Temp. Dew Point Humidity Pressure Visibility Wind Dir Wind Speed Gust Speed Precip Events Conditions
12:15 AM 68.0 °F 42.8 °F 40% 30.02 in 10.0 mi Calm Calm - N/A   Clear
12:35 AM 66.2 °F 44.6 °F 46% 30.02 in 10.0 mi Calm Calm - N/A   Clear
1:15 AM 62.6 °F 46.4 °F 55% 30.01 in 7.0 mi Calm Calm - N/A   Clear
1:35 AM 62.6 °F 46.4 °F 55% 30.01 in 10.0 mi Calm Calm - N/A   Clear
1:55 AM 62.6 °F 48.2 °F 59% 30.01 in 10.0 mi West 3.5 mph - N/A   Clear
2:15 AM 62.6 °F 48.2 °F 59% 30.00 in 10.0 mi Calm Calm - N/A   Clear
2:35 AM 60.8 °F 48.2 °F 63% 30.00 in 10.0 mi Calm Calm - N/A   Clear
2:55 AM 60.8 °F 50.0 °F 68% 30.00 in 10.0 mi Calm Calm - N/A   Clear
3:15 AM 60.8 °F 55.4 °F 82% 30.00 in 10.0 mi West 3.5 mph - N/A   Clear
3:35 AM 62.6 °F 55.4 °F 77% 30.00 in 10.0 mi Calm Calm - N/A   Clear
3:55 AM 62.6 °F 55.4 °F 77% 30.00 in 10.0 mi Calm Calm - N/A   Clear
4:15 AM 66.2 °F 46.4 °F 49% 30.00 in 10.0 mi Calm Calm - N/A   Clear
4:35 AM 68.0 °F 50.0 °F 52% 30.00 in 10.0 mi Calm Calm - N/A   Clear
4:55 AM 68.0 °F 46.4 °F 46% 30.00 in 10.0 mi Calm Calm - N/A   Clear
5:15 AM 66.2 °F 50.0 °F 56% 30.00 in 10.0 mi Calm Calm - N/A   Clear
5:35 AM 66.2 °F 50.0 °F 56% 30.00 in 10.0 mi Calm Calm - N/A   Clear
5:55 AM 66.2 °F 48.2 °F 52% 30.01 in 10.0 mi Calm Calm - N/A   Clear
6:15 AM 62.6 °F 51.8 °F 68% 30.02 in 10.0 mi Calm Calm - N/A   Clear
6:35 AM 68.0 °F 48.2 °F 49% 30.02 in 10.0 mi Calm Calm - N/A   Clear
6:55 AM 62.6 °F 55.4 °F 77% 30.02 in 10.0 mi Calm Calm - N/A   Clear
7:15 AM 62.6 °F 59.0 °F 88% 30.02 in 10.0 mi Calm Calm - N/A   Clear
7:35 AM 64.4 °F 60.8 °F 88% 30.03 in 10.0 mi Calm Calm - N/A   Clear
7:55 AM 66.2 °F 60.8 °F 83% 30.03 in 10.0 mi Calm Calm - N/A   Clear
8:15 AM 69.8 °F 60.8 °F 73% 30.03 in 10.0 mi Calm Calm - N/A   Clear
8:35 AM 73.4 °F 46.4 °F 38% 30.03 in 10.0 mi Calm Calm - N/A   Clear
8:55 AM 75.2 °F 42.8 °F 31% 30.04 in 10.0 mi Calm Calm - N/A   Clear
9:15 AM 77.0 °F 42.8 °F 29% 30.04 in 10.0 mi West 3.5 mph - N/A   Clear
9:35 AM 78.8 °F 41.0 °F 26% 30.04 in 10.0 mi SW 3.5 mph - N/A   Clear
9:55 AM 80.6 °F 35.6 °F 20% 30.04 in 10.0 mi WSW 4.6 mph - N/A   Clear
10:15 AM 82.4 °F 30.2 °F 15% 30.04 in 10.0 mi West 5.8 mph - N/A   Clear
10:35 AM 84.2 °F 28.4 °F 13% 30.04 in 10.0 mi SW 4.6 mph - N/A   Clear
10:55 AM 86.0 °F 26.6 °F 12% 30.04 in 10.0 mi WSW 3.5 mph - N/A   Clear
11:15 AM 86.0 °F 14.0 °F 7% 30.05 in 10.0 mi WSW 4.6 mph - N/A   Clear
11:35 AM 87.8 °F 5.0 °F 4% 30.04 in 10.0 mi WSW 5.8 mph - N/A   Clear
11:55 AM 87.8 °F 8.6 °F 5% 30.04 in 10.0 mi WSW 3.5 mph - N/A   Clear
12:15 PM 87.8 °F 8.6 °F 5% 30.04 in 10.0 mi Calm Calm - N/A   Clear
12:35 PM 89.6 °F 8.6 °F 5% 30.04 in 10.0 mi Calm Calm - N/A   Clear
12:55 PM 91.4 °F 5.0 °F 4% 30.03 in 10.0 mi SW 3.5 mph - N/A   Clear
1:15 PM 91.4 °F 8.6 °F 5% 30.02 in 10.0 mi SW 5.8 mph - N/A   Clear
1:35 PM 93.2 °F 8.6 °F 4% 30.02 in 10.0 mi SSW 4.6 mph - N/A   Clear
1:55 PM 93.2 °F 6.8 °F 4% 30.01 in 10.0 mi West 4.6 mph - N/A   Clear
2:15 PM 93.2 °F 12.2 °F 5% 30.00 in 10.0 mi South 3.5 mph - N/A   Clear
2:35 PM 95.0 °F 6.8 °F 4% 30.00 in 10.0 mi South 4.6 mph - N/A   Clear
2:55 PM 95.0 °F 5.0 °F 4% 29.99 in 10.0 mi South 3.5 mph - N/A   Clear
3:15 PM 95.0 °F 10.4 °F 4% 29.99 in 10.0 mi SSW 9.2 mph - N/A   Clear
3:35 PM 93.2 °F 14.0 °F 5% 29.99 in 10.0 mi South 6.9 mph - N/A   Clear
3:55 PM 95.0 °F 17.6 °F 6% 29.98 in 10.0 mi SSE 4.6 mph - N/A   Clear
4:15 PM 95.0 °F 10.4 °F 4% 29.98 in 10.0 mi SW 3.5 mph - N/A   Clear
4:35 PM 95.0 °F 14.0 °F 5% 29.97 in 10.0 mi SSW 4.6 mph - N/A   Clear
4:55 PM 93.2 °F 14.0 °F 5% 29.97 in 10.0 mi South 6.9 mph - N/A   Clear
5:15 PM 95.0 °F 14.0 °F 5% 29.97 in 10.0 mi SSW 5.8 mph - N/A   Clear
5:35 PM 93.2 °F 19.4 °F 7% 29.98 in 10.0 mi South 6.9 mph - N/A   Clear
5:55 PM 93.2 °F 19.4 °F 7% 29.98 in 10.0 mi SSW 5.8 mph - N/A   Clear
6:15 PM 91.4 °F 19.4 °F 7% 29.98 in 10.0 mi South 5.8 mph - N/A   Clear
6:35 PM 91.4 °F 24.8 °F 9% 29.98 in 10.0 mi SSW 5.8 mph - N/A   Clear
6:55 PM 89.6 °F 32.0 °F 13% 29.98 in 10.0 mi Calm Calm - N/A   Clear
7:15 PM 87.8 °F 35.6 °F 16% 29.98 in 10.0 mi South 3.5 mph - N/A   Clear
7:35 PM 86.0 °F 41.0 °F 20% 29.99 in 10.0 mi Calm Calm - N/A   Clear
7:55 PM 82.4 °F 46.4 °F 28% 29.99 in 10.0 mi Calm Calm - N/A   Clear
8:15 PM 80.6 °F 46.4 °F 30% 29.99 in 10.0 mi Calm Calm - N/A   Clear
8:35 PM 78.8 °F 46.4 °F 32% 30.00 in 10.0 mi Calm Calm - N/A   Clear
9:15 PM 80.6 °F 44.6 °F 28% 30.01 in 10.0 mi Calm Calm - N/A   Clear
9:35 PM 78.8 °F 44.6 °F 30% 30.01 in 10.0 mi SSW 3.5 mph - N/A   Clear
9:55 PM 78.8 °F 46.4 °F 32% 30.02 in 10.0 mi SSW 3.5 mph - N/A   Clear
10:15 PM 78.8 °F 44.6 °F 30% 30.02 in 10.0 mi SSW 3.5 mph - N/A   Clear
10:35 PM 78.8 °F 44.6 °F 30% 30.03 in 10.0 mi SSW 4.6 mph - N/A   Clear
10:55 PM 78.8 °F 42.8 °F 28% 30.03 in 10.0 mi SSW 3.5 mph - N/A   Clear
11:15 PM 77.0 °F 44.6 °F 32% 30.04 in 10.0 mi Calm Calm - N/A   Clear
11:35 PM 77.0 °F 44.6 °F 32% 30.04 in 10.0 mi SSW 3.5 mph - N/A   Clear
11:55 PM 77.0 °F 44.6 °F 32% 30.04 in 10.0 mi SSW 4.6 mph - N/A   Clear